QZS-4 (MICHIBIKI-4)

Last updated on Tue Mar 10 2026 00:02:54 GMT+0000 (Coordinated Universal Time)

1 42965U 17062A 26067.79828110 -.00000330 00000+0 00000+0 0 9994 2 42965 40.1702 344.7680 0748197 269.9598 339.6677 1.00280139 30792
UTC large
Height (km)
Speed (km/s)
/
Latitude / Longitude
Inclination (degrees)
Orbital Period (minutes)
Azimuth
Elevation
Range (km)
Doppler Factor

Next 0 passes for location: London (51.5072 / 0.1276)

Sorry there are no passes over London.